Location: Ellerstadt
(49.4644°N, 8.2615°E)
Time: 05:16:17
(UTC+00:00)

ERBS - Pass Details

Date: 03 March 2021
Orbit: 408 x 413 km, 57.0° (Epoch: 11 April)

Event Time Altitude Azimuth Distance (km) Brightness Sun altitude
Rises 18:57:38 0° 265° (W) 2,349 7.5 -17.7°
Reaches altitude 10° 18:59:52 10° 276° (W) 1,487 6.3 -18.1°
Maximum altitude 19:02:52 31° 341° (NNW) 751 3.8 -18.5°
Enters shadow 19:04:09 23° 22° (NNE) 926 3.9 -18.7°
